Location: Biltmore Gardens
(41.6070°N, 83.4666°W)
Time: 14:21:43
(UTC+00:00)

Cosmos 1869 Rocket - Pass Details

Date: 14 July 2020
Orbit: 605 x 633 km, 82.5° (Epoch: 04 August)

Event Time Altitude Azimuth Distance (km) Brightness Sun altitude
Exits shadow 06:56:11 57° 101° (E) 720 3.8 -24.4°
Maximum altitude 06:56:17 57° 94° (E) 718 3.8 -24.4°
Drops below altitude 10° 07:00:33 10° 16° (NNE) 1,967 7.2 -24.1°
Sets 07:02:48 0° 13° (NNE) 2,878 8.4 -23.9°
